Flag for Saint Lucia Weather past 2 weeks in Vieux Fort, Saint Lucia

Now
88 °F

Scattered clouds.


Feels Like: 96 °F
Forecast: 80 / 86 °F
Wind: 17 mph from Southeast

Location: Hewanorra International Airport

Current Time: Apr 25, 2015 at 1:19:52 PM

Latest Report: Apr 25, 2015 at 1:00 PM


Visibility: N/A

Pressure: 29.98 "Hg

Humidity: 62%

Dew point: 73 °F

Location of Vieux FortLocation

Historic Weather in Vieux Fort — Graph

°F

Vieux Fort temperature yesterday

Maximum temperature yesterday: 88 °F (at 1:00 PM)
Minimum temperature yesterday: 79 °F (at 12:00 AM)
Average temperature yesterday: 82 °F

Past Weeks' High & Low Weather Summary

 TemperatureHumidityPressure
High88 °F (Apr 24, 1:00 PM)94% (Apr 22, 1:00 PM)30.09 "Hg (Apr 22, 1:00 PM)
Low75 °F (Apr 10, 6:00 PM)55% (Apr 21, 12:00 PM)29.92 "Hg (Apr 22, 2:00 AM)
Average81 °F75%29.99 "Hg
* Reported Apr 10 6:00 PM — Apr 25 12:00 Noon, Vieux Fort, Weather by CustomWeather, © 2015

Note: Actual official high and low records may vary slightly from our data, if they occured in-between our weather recording intervals... More about our weather records

Advertising

Vieux Fort weather history for previous 24 hours

 ConditionsComfort  
Time TempWeatherWind HumidityBarometerVisibility
12:00 PM
Sat, Apr 25
86 °FScattered clouds.17 mph66%30.01 "HgN/A
11:00 AM86 °FScattered clouds.21 mph66%30.01 "HgN/A
10:00 AM84 °FPartly sunny.21 mph70%30.04 "HgN/A
9:00 AM84 °FScattered clouds.21 mph70%30.04 "HgN/A
8:00 AM82 °FPassing clouds.18 mph74%30.01 "HgN/A
7:00 AM81 °FPassing clouds.17 mph79%30.01 "HgN/A
6:00 AM79 °FScattered clouds.18 mph84%29.98 "HgN/A
5:00 AM79 °FPassing clouds.15 mph84%29.98 "HgN/A
4:00 AM79 °FPassing clouds.17 mph84%29.95 "HgN/A
3:00 AM81 °FPassing clouds.15 mph84%29.95 "HgN/A
2:00 AM81 °FPassing clouds.12 mph79%29.95 "HgN/A
1:00 AM81 °FPassing clouds.13 mph79%29.98 "HgN/A
12:00 AM81 °FPassing clouds.14 mph84%29.98 "HgN/A
11:00 PM
Fri, Apr 24
81 °FPassing clouds.16 mph84%30.01 "HgN/A
10:00 PM81 °FPassing clouds.18 mph84%29.98 "HgN/A
9:00 PM81 °FPartly cloudy.15 mph84%29.98 "HgN/A
8:00 PM81 °FPassing clouds.16 mph84%29.95 "HgN/A
7:00 PM81 °FSprinkles. Passing clouds.17 mph84%29.92 "HgN/A
6:00 PM82 °FPassing clouds.16 mph79%29.92 "HgN/A
5:00 PM84 °FPassing clouds.17 mph74%29.92 "HgN/A
4:00 PM84 °FScattered showers. Passing clouds.17 mph70%29.92 "HgN/A
3:00 PM86 °FPassing clouds.17 mph66%29.92 "HgN/A
2:00 PM86 °FPassing clouds.16 mph66%29.95 "HgN/A
1:00 PM88 °FPassing clouds.21 mph62%29.98 "HgN/A
Weather by CustomWeather, © 2015

See weather overviewHow to use our weather pages